Regional Weather Roundup
Issued by NWS Kansas City/Pleasant Hill, MO

Home | Current Version | Previous Version | Graphics & Text | Print | Product List | Glossary Off
Versions: 1 2 3 4 5 6 7 8 9 10 11 12 13 14 15 16 17 18 19 20 21 22 23 24 25 26 27 28 29 30 31 32 33 34 35 36 37 38 39 40 41 42 43 44 45 46 47 48 49 50

000
ASUS43 KEAX 220810
RWREAX

WEATHER ROUNDUP FOR EASTERN KANSAS AND NORTHWEST MISSOURI
NATIONAL WEATHER SERVICE KANSAS CITY/PLEASANT HILL MO
200 AM CST MON JAN 22 2018

KSZ040-057-103>105-MOZ028-029-037-043-220900-
...KANSAS CITY METROPOLITAN AREA...

CITY           SKY/WX    TMP DP  RH WIND       PRES   REMARKS
K.C. INTL      CLOUDY    47  46  97 E12       29.43F
K.C. DOWNTOWN  MOCLDY    51  47  86 E8        29.42F
LEES SUMMIT    MOCLDY    55  53  93 SE12      29.46F
OLATHE - IXD   CLOUDY    43  42  97 S6        29.48F FOG
OLATHE - OJC   CLOUDY    46  46 100 SW3       29.47S
LAWRENCE       PTCLDY    40  38  93 SW8       29.47R WCI  34

$$

MOZ001>008-011>017-020>025-030>033-038>040-044>046-053-054-220900-
...NORTHERN AND CENTRAL MISSOURI...

CITY           SKY/WX    TMP DP  RH WIND       PRES   REMARKS
ST. JOSEPH     CLOUDY    44  44 100 E9        29.43F
MOSBY          TSTM      54  52  94 CALM      29.48F
WARRENSBURG    CLOUDY    54  50  87 S9        29.50F
WHITEMAN AFB   CLOUDY    54  52  93 S13       29.47F
CLINTON        CLOUDY    54  52  94 S12       29.54F
SEDALIA        CLOUDY    57  56  96 S12       29.53F
WARSAW         NOT AVBL
CHILLICOTHE      N/A     55  53  93 SE7       29.50F
KIRKSVILLE     CLOUDY    54  54 100 SE18      29.52F

$$

MOZ041-047>049-056>058-063>065-088>090-097-220900-
...EASTERN AND SOUTHERN MISSOURI...

CITY           SKY/WX    TMP DP  RH WIND       PRES   REMARKS
ST. LOUIS INTL HVY RAIN  57  54  89 S21       29.64R FOG
SPIRIT OF STL  RAIN      57  55  93 SW9       29.61R FOG
COLUMBIA       LGT RAIN  56  32  40 SE12      29.54F
JEFFERSON CITY LGT RAIN  56  54  93 SE7       29.57F
ROLLA          RAIN      54  54 100 S13       29.61F
OSAGE BEACH    LGT RAIN  55  54  96 S6        29.58F
SPRINGFIELD    CLOUDY    54  53  97 S10       29.60R
BRANSON        CLOUDY    50  46  87 CALM      29.65S
JOPLIN         CLOUDY    52  31  44 SW13      29.59F
WEST PLAINS    RAIN      56  54  93 SW12G29   29.65R FOG

$$

IAZ060-094-KSZ022-034>040-054-083-096-NEZ052-066-093-220900-
...KANSAS...SOUTHEAST NEBRASKA AND IOWA...

CITY           SKY/WX    TMP DP  RH WIND       PRES   REMARKS
TOPEKA         MOCLDY    42  41  96 W5        29.47S
MANHATTAN      CLEAR     35  32  88 CALM      29.49F
EMPORIA        CLEAR     34  32  92 SW7       29.52F WCI  28
CHANUTE        CLEAR     42  37  82 W8        29.55S
WICHITA        MOCLDY    34  31  88 SW14      29.55F WCI  25
OMAHA          CLOUDY    37  35  92 N16       29.52F WCI  28
LINCOLN        CLOUDY    36  35  96 N12       29.55R WCI  28
FALLS CITY     FOG       41  41 100 N7        29.45S VSB 1/2
LAMONI         LGT RAIN  43  41  93 NW7       29.49S VSB 1/2
DES MOINES     CLOUDY    39  38  96 NE13      29.53F WCI  31

$$




USA.gov is the U.S. government's official web portal to all federal, state and local government web resources and services.